Weather History for EICK - October, 2013

Change the Weather History Date:

Tuesday, October 22, 2013

  Actual Average (EINN) Record (EINN)
Temperature  
Mean Temperature 55 °F -  
Max Temperature 59 °F 52 °F 62 °F (1996)
Min Temperature 51 °F 42 °F 33 °F (2003)
Degree Days  
Heating Degree Days 10    
Growing Degree Days 5 (Base 50)    
Moisture  
Dew Point 56 °F    
Average Humidity 99    
Maximum Humidity 100    
Minimum Humidity 88    
Precipitation  
Precipitation 0.20 in 0.15 in - ()
Sea Level Pressure  
Sea Level Pressure 29.10 in    
Wind  
Wind Speed 12 mph ()    
Max Wind Speed 18 mph    
Max Gust Speed -    
Visibility 6.4 miles    
Events Rain    
Averages and records for this station are not official NWS values.
T = Trace of Precipitation, MM = Missing Value Source: Averaged Metar Reports

Daily Weather History Graph

Daily Weather History Graph

Search for Another Location

Airport or City:

Trip Planner

Search our weather history database for the weather conditions in past years. The results will help you decide how hot, cold, wet, or windy it might be!

Date:

Astronomy

Oct. 22, 2013 Rise Set
Actual Time 8:10 AM IST 6:25 PM IST
Civil Twilight 7:36 AM IST 6:59 PM IST
Nautical Twilight 6:57 AM IST 7:38 PM IST
Astronomical Twilight 6:18 AM IST 8:17 PM IST
Moon 8:35 PM IST (10/22) 11:46 AM IST (10/22)
Length of Visible Light 11h 23m
Length of Day
10h 14m
Waning Gibbous, 88% of the Moon is Illuminated
Oct 22
Waning Gibbous
Oct 27
Last Quarter
Nov 3
New
Nov 10
First Quarter
Nov 17
Full

Hourly Weather History & Observations

Time (IST) Temp. Dew Point Humidity Pressure Visibility Wind Dir Wind Speed Gust Speed Precip Events Conditions
12:00 AM 57.2 °F 57.2 °F 100% 29.21 in 6.2 mi SSW 18.4 mph - N/A   Mostly Cloudy
12:30 AM 57.2 °F 57.2 °F 100% 29.21 in 6.2 mi SSW 18.4 mph - N/A   Mostly Cloudy
1:00 AM 57 °F 57 °F 100% 29.21 in 12 mi SSW 17.9 mph - -   Partly Cloudy
1:00 AM 57.2 °F 57.2 °F 100% 29.21 in 6.2 mi SSW 17.3 mph - N/A   Mostly Cloudy
1:30 AM 57.2 °F 57.2 °F 100% 29.21 in 6.2 mi SSW 16.1 mph - N/A   Mostly Cloudy
2:00 AM 57.2 °F 57.2 °F 100% 29.21 in 6.2 mi SSW 16.1 mph - N/A   Mostly Cloudy
2:30 AM 57.2 °F 57.2 °F 100% 29.18 in 6.2 mi South 15.0 mph - N/A   Mostly Cloudy
3:00 AM 57.2 °F 57.2 °F 100% 29.18 in 6.2 mi SSW 13.8 mph - N/A   Mostly Cloudy
3:30 AM 57.2 °F 57.2 °F 100% 29.18 in 6.2 mi South 10.4 mph - N/A   Mostly Cloudy
4:00 AM 57.2 °F 57.2 °F 100% 29.15 in 6.2 mi South 10.4 mph - N/A   Mostly Cloudy
4:30 AM 57.2 °F 57.2 °F 100% 29.15 in 6.2 mi South 10.4 mph - N/A   Mostly Cloudy
5:00 AM 57.2 °F 57.2 °F 100% 29.15 in 6.2 mi South 11.5 mph - N/A   Mostly Cloudy
5:30 AM 57.2 °F 57.2 °F 100% 29.12 in 6.2 mi South 9.2 mph - N/A   Mostly Cloudy
6:00 AM 57.2 °F 57.2 °F 100% 29.12 in 6.2 mi South 9.2 mph - N/A   Mostly Cloudy
6:30 AM 57.2 °F 57.2 °F 100% 29.12 in 6.2 mi South 11.5 mph - N/A   Mostly Cloudy
7:00 AM 57 °F 57 °F 100% 29.13 in 12 mi South 11.2 mph - -   Mostly Cloudy
7:00 AM 57.2 °F 57.2 °F 100% 29.12 in 6.2 mi South 10.4 mph - N/A   Mostly Cloudy
7:30 AM 57.2 °F 57.2 °F 100% 29.12 in 6.2 mi South 10.4 mph - N/A   Mostly Cloudy
8:00 AM 57.2 °F 57.2 °F 100% 29.12 in 4.3 mi South 10.4 mph - N/A   Mostly Cloudy
8:30 AM 57.2 °F 57.2 °F 100% 29.12 in 5.0 mi South 11.5 mph - N/A   Mostly Cloudy
9:00 AM 57.2 °F 57.2 °F 100% 29.12 in 5.6 mi South 9.2 mph - N/A   Mostly Cloudy
9:30 AM 57.2 °F 57.2 °F 100% 29.09 in 6.2 mi South 9.2 mph - N/A   Mostly Cloudy
10:00 AM 57.2 °F 57.2 °F 100% 29.09 in 5.6 mi South 8.1 mph - N/A   Mostly Cloudy
10:30 AM 59.0 °F 59.0 °F 100% 29.09 in 6.2 mi South 12.7 mph - N/A   Mostly Cloudy
11:00 AM 59.0 °F 57.2 °F 94% 29.09 in 6.2 mi South 15.0 mph - N/A   Mostly Cloudy
11:30 AM 59.0 °F 57.2 °F 94% 29.09 in 6.2 mi South 17.3 mph - N/A   Mostly Cloudy
12:00 PM 59.0 °F 57.2 °F 94% 29.09 in 6.2 mi South 13.8 mph - N/A   Partly Cloudy
12:30 PM 59.0 °F 57.2 °F 94% 29.09 in 6.2 mi South 16.1 mph - N/A   Scattered Clouds
1:00 PM 59 °F 56 °F 88% 29.10 in 16 mi South 15.7 mph - -   Mostly Cloudy
1:00 PM 59.0 °F 57.2 °F 94% 29.09 in 6.2 mi South 16.1 mph - N/A   Mostly Cloudy
1:30 PM 59.0 °F 57.2 °F 94% 29.09 in 6.2 mi South 15.0 mph - N/A   Mostly Cloudy
2:00 PM 59.0 °F 59.0 °F 100% 29.09 in 6.2 mi South 12.7 mph - N/A   Mostly Cloudy
2:30 PM 59.0 °F 59.0 °F 100% 29.06 in 6.2 mi South 15.0 mph - N/A Rain Light Rain
3:00 PM 57.2 °F 55.4 °F 94% 29.06 in 6.2 mi South 12.7 mph - N/A   Mostly Cloudy
3:30 PM 55.4 °F 55.4 °F 100% 29.03 in 5.6 mi South 11.5 mph - N/A Rain Light Rain Showers
4:00 PM 59.0 °F 59.0 °F 100% 29.03 in 5.0 mi SSE 15.0 mph - N/A Rain Light Rain Showers
4:30 PM 59.0 °F 59.0 °F 100% 29.03 in 4.3 mi South 15.0 mph - N/A Rain Light Rain Showers
5:00 PM 55.4 °F 55.4 °F 100% 29.03 in 6.2 mi SSW 10.4 mph - N/A   Mostly Cloudy
5:30 PM 53.6 °F 53.6 °F 100% 29.03 in 3.7 mi SSW 9.2 mph - N/A Rain Light Rain Showers
6:00 PM 53.6 °F 53.6 °F 100% 29.03 in 6.2 mi South 5.8 mph - N/A Rain Light Rain Showers
6:30 PM 53.6 °F 53.6 °F 100% 29.03 in 6.2 mi South 4.6 mph - N/A   Mostly Cloudy
7:00 PM 54 °F 54 °F 100% 29.03 in 6 mi SSE 6.7 mph - - Rain Light Rain Showers
7:00 PM 53.6 °F 53.6 °F 100% 29.03 in 5.6 mi SSE 6.9 mph - N/A   Mostly Cloudy
7:30 PM 55.4 °F 55.4 °F 100% 29.03 in 5.6 mi South 10.4 mph - N/A   Mostly Cloudy
8:00 PM 55.4 °F 55.4 °F 100% 29.03 in 5.6 mi SSW 5.8 mph - N/A Rain Light Rain Showers
8:30 PM 53.6 °F 53.6 °F 100% 29.03 in 6.2 mi SSW 5.8 mph - N/A   Mostly Cloudy
9:00 PM 53.6 °F 53.6 °F 100% 29.03 in 6.2 mi SW 4.6 mph - N/A   Mostly Cloudy
9:30 PM 53.6 °F 53.6 °F 100% 29.03 in 6.2 mi WSW 4.6 mph - N/A   Mostly Cloudy
10:00 PM 51.8 °F 51.8 °F 100% 29.06 in 6.2 mi WSW 4.6 mph - N/A   Mostly Cloudy
10:30 PM 53.6 °F 53.6 °F 100% 29.06 in 6.2 mi Variable 3.5 mph - N/A   Mostly Cloudy
11:00 PM 53.6 °F 53.6 °F 100% 29.06 in 6.2 mi WNW 6.9 mph - N/A   Mostly Cloudy
11:30 PM 51.8 °F 51.8 °F 100% 29.06 in 5.6 mi NW 8.1 mph - N/A Rain Light Rain Showers